EN

Hourly Weather Duhov

Today, 24 October, Saturday

Time Temperature Precipitation Wind Pressure Humidity
00:00 +14°C° 0 mm 4 mps 754 mmHg 94%
01:00 +14°C° 0 mm 4 mps 754 mmHg 94%
02:00 +14°C° 0 mm 4 mps 754 mmHg 95%
03:00 +14°C° 0 mm 4 mps 754 mmHg 96%
04:00 +13°C° 0 mm 4 mps 754 mmHg 96%
05:00 +13°C° 0 mm 3 mps 754 mmHg 96%
06:00 +13°C° 0 mm 3 mps 753 mmHg 96%
07:00 +14°C° 0 mm 4 mps 753 mmHg 90%
08:00 +15°C° 0 mm 4 mps 754 mmHg 83%
09:00 +16°C° 0 mm 5 mps 754 mmHg 77%
10:00 +17°C° 0 mm 5 mps 753 mmHg 72%
11:00 +17°C° 0 mm 5 mps 753 mmHg 67%
12:00 +19°C° 0 mm 5 mps 753 mmHg 63%
13:00 +19°C° 0 mm 5 mps 753 mmHg 63%
14:00 +19°C° 0 mm 5 mps 753 mmHg 64%
15:00 +20°C° 0 mm 6 mps 753 mmHg 65%
16:00 +19°C° 0 mm 5 mps 753 mmHg 71%
17:00 +16°C° 0 mm 5 mps 752 mmHg 77%
18:00 +15°C° 0 mm 4 mps 752 mmHg 83%
19:00 +15°C° 0 mm 4 mps 752 mmHg 86%
20:00 +15°C° 0 mm 4 mps 752 mmHg 88%
21:00 +15°C° 0 mm 4 mps 752 mmHg 91%
22:00 +15°C° 0 mm 4 mps 752 mmHg 90%
23:00 +15°C° 0 mm 4 mps 752 mmHg 89%

Tomorrow, 25 October, Sunday

Time Temperature Precipitation Wind Pressure Humidity
00:00 +15°C° 0 mm 4 mps 752 mmHg 88%
01:00 +16°C° 0 mm 3 mps 752 mmHg 85%
02:00 +16°C° 0 mm 3 mps 752 mmHg 82%
03:00 +17°C° 0 mm 3 mps 752 mmHg 79%
04:00 +16°C° 0 mm 3 mps 752 mmHg 75%
05:00 +16°C° 0 mm 3 mps 752 mmHg 71%
06:00 +16°C° 0 mm 3 mps 752 mmHg 67%
07:00 +16°C° 0 mm 3 mps 753 mmHg 63%
08:00 +16°C° 0 mm 3 mps 753 mmHg 59%
09:00 +17°C° 0 mm 3 mps 753 mmHg 55%
10:00 +18°C° 0 mm 3 mps 753 mmHg 52%
11:00 +19°C° 0 mm 2 mps 753 mmHg 48%
12:00 +20°C° 0 mm 2 mps 753 mmHg 45%
13:00 +20°C° 0 mm 2 mps 754 mmHg 45%
14:00 +21°C° 0 mm 2 mps 754 mmHg 44%
15:00 +21°C° 0 mm 2 mps 754 mmHg 44%
16:00 +20°C° 0 mm 2 mps 754 mmHg 48%
17:00 +19°C° 0 mm 2 mps 754 mmHg 52%
18:00 +18°C° 0 mm 2 mps 754 mmHg 56%
19:00 +17°C° 0 mm 2 mps 754 mmHg 60%
20:00 +16°C° 0 mm 2 mps 755 mmHg 63%
21:00 +16°C° 0 mm 3 mps 755 mmHg 66%
22:00 +14°C° 0 mm 3 mps 755 mmHg 69%
23:00 +13°C° 0 mm 3 mps 755 mmHg 72%

Day after tomorrow, 26 October, Monday

Time Temperature Precipitation Wind Pressure Humidity
00:00 +13°C° 0 mm 3 mps 755 mmHg 75%
01:00 +12°C° 0 mm 3 mps 756 mmHg 75%
02:00 +12°C° 0 mm 3 mps 756 mmHg 76%
03:00 +11°C° 0 mm 3 mps 756 mmHg 77%
04:00 +11°C° 0 mm 3 mps 756 mmHg 78%
05:00 +10°C° 0 mm 3 mps 756 mmHg 79%
06:00 +10°C° 0 mm 3 mps 756 mmHg 79%
07:00 +11°C° 0 mm 4 mps 756 mmHg 76%
08:00 +11°C° 0 mm 4 mps 757 mmHg 73%
09:00 +12°C° 0 mm 4 mps 757 mmHg 69%
10:00 +13°C° 0 mm 4 mps 757 mmHg 63%
11:00 +15°C° 0 mm 4 mps 757 mmHg 58%
12:00 +17°C° 0 mm 4 mps 757 mmHg 52%
13:00 +18°C° 0 mm 4 mps 756 mmHg 49%
14:00 +18°C° 0 mm 4 mps 756 mmHg 47%
15:00 +17°C° 0 mm 5 mps 756 mmHg 45%
16:00 +17°C° 0 mm 4 mps 756 mmHg 47%
17:00 +17°C° 0 mm 4 mps 756 mmHg 48%
18:00 +15°C° 0 mm 4 mps 756 mmHg 50%
19:00 +14°C° 0 mm 4 mps 756 mmHg 51%
20:00 +14°C° 0 mm 4 mps 757 mmHg 52%
21:00 +13°C° 0 mm 5 mps 757 mmHg 53%
22:00 +13°C° 0 mm 5 mps 757 mmHg 54%
23:00 +12°C° 0 mm 5 mps 757 mmHg 54%

, 27 October, Tuesday

Time Temperature Precipitation Wind Pressure Humidity
00:00 +12°C° 0 mm 5 mps 757 mmHg 55%
01:00 +12°C° 0 mm 5 mps 757 mmHg 56%
02:00 +12°C° 0 mm 5 mps 757 mmHg 57%
03:00 +10°C° 0 mm 5 mps 757 mmHg 58%
04:00 +10°C° 0 mm 5 mps 757 mmHg 59%
05:00 +10°C° 0 mm 6 mps 758 mmHg 61%
06:00 +10°C° 0 mm 6 mps 758 mmHg 62%
07:00 +10°C° 0 mm 6 mps 758 mmHg 59%
08:00 +11°C° 0 mm 7 mps 758 mmHg 56%
09:00 +11°C° 0 mm 7 mps 758 mmHg 53%
10:00 +12°C° 0 mm 7 mps 758 mmHg 49%
11:00 +15°C° 0 mm 7 mps 758 mmHg 46%
12:00 +16°C° 0 mm 7 mps 758 mmHg 42%
13:00 +16°C° 0 mm 7 mps 758 mmHg 42%
14:00 +16°C° 0 mm 7 mps 758 mmHg 41%
15:00 +16°C° 0 mm 7 mps 758 mmHg 41%
16:00 +15°C° 0 mm 7 mps 758 mmHg 44%
17:00 +14°C° 0 mm 7 mps 758 mmHg 47%
18:00 +13°C° 0 mm 6 mps 758 mmHg 50%
19:00 +12°C° 0 mm 7 mps 758 mmHg 51%
20:00 +12°C° 0 mm 7 mps 758 mmHg 53%
21:00 +11°C° 0 mm 7 mps 759 mmHg 54%
22:00 +11°C° 0 mm 7 mps 758 mmHg 55%
23:00 +10°C° 0 mm 7 mps 758 mmHg 56%

27 October, Tuesday

Time Temperature Precipitation Wind Pressure Humidity
00:00 +12°C° 0 mm 5 mps 757 mmHg 55%
01:00 +12°C° 0 mm 5 mps 757 mmHg 56%
02:00 +12°C° 0 mm 5 mps 757 mmHg 57%
03:00 +10°C° 0 mm 5 mps 757 mmHg 58%
04:00 +10°C° 0 mm 5 mps 757 mmHg 59%
05:00 +10°C° 0 mm 6 mps 758 mmHg 61%
06:00 +10°C° 0 mm 6 mps 758 mmHg 62%
07:00 +10°C° 0 mm 6 mps 758 mmHg 59%
08:00 +11°C° 0 mm 7 mps 758 mmHg 56%
09:00 +11°C° 0 mm 7 mps 758 mmHg 53%
10:00 +12°C° 0 mm 7 mps 758 mmHg 49%
11:00 +15°C° 0 mm 7 mps 758 mmHg 46%
12:00 +16°C° 0 mm 7 mps 758 mmHg 42%
13:00 +16°C° 0 mm 7 mps 758 mmHg 42%
14:00 +16°C° 0 mm 7 mps 758 mmHg 41%
15:00 +16°C° 0 mm 7 mps 758 mmHg 41%
16:00 +15°C° 0 mm 7 mps 758 mmHg 44%
17:00 +14°C° 0 mm 7 mps 758 mmHg 47%
18:00 +13°C° 0 mm 6 mps 758 mmHg 50%
19:00 +12°C° 0 mm 7 mps 758 mmHg 51%
20:00 +12°C° 0 mm 7 mps 758 mmHg 53%
21:00 +11°C° 0 mm 7 mps 759 mmHg 54%
22:00 +11°C° 0 mm 7 mps 758 mmHg 55%
23:00 +10°C° 0 mm 7 mps 758 mmHg 56%

28 October, Wednesday

Time Temperature Precipitation Wind Pressure Humidity
00:00 +10°C° 0 mm 7 mps 758 mmHg 57%
01:00 +9°C° 0 mm 7 mps 758 mmHg 58%
02:00 +9°C° 0 mm 7 mps 758 mmHg 58%
03:00 +7°C° 0 mm 8 mps 758 mmHg 59%
04:00 +7°C° 0 mm 8 mps 758 mmHg 61%
05:00 +7°C° 0 mm 8 mps 758 mmHg 62%
06:00 +6°C° 0 mm 8 mps 758 mmHg 64%
07:00 +7°C° 0 mm 8 mps 758 mmHg 66%
08:00 +7°C° 0 mm 9 mps 758 mmHg 68%
09:00 +7°C° 0 mm 9 mps 758 mmHg 70%
10:00 +8°C° 0 mm 9 mps 758 mmHg 65%
11:00 +10°C° 0 mm 9 mps 757 mmHg 59%
12:00 +11°C° 0 mm 9 mps 757 mmHg 54%
13:00 +12°C° 0 mm 9 mps 757 mmHg 54%
14:00 +12°C° 0 mm 9 mps 757 mmHg 54%
15:00 +12°C° 0 mm 9 mps 757 mmHg 55%
16:00 +12°C° 0 mm 8 mps 757 mmHg 57%
17:00 +12°C° 0 mm 7 mps 757 mmHg 58%
18:00 +11°C° 0 mm 7 mps 757 mmHg 60%
19:00 +11°C° 0 mm 7 mps 756 mmHg 60%
20:00 +11°C° 0 mm 7 mps 756 mmHg 60%
21:00 +11°C° 0 mm 7 mps 756 mmHg 60%
22:00 +11°C° 0 mm 8 mps 755 mmHg 63%
23:00 +10°C° 0 mm 8 mps 755 mmHg 67%

29 October, Thursday

Time Temperature Precipitation Wind Pressure Humidity
00:00 +10°C° 0 mm 8 mps 755 mmHg 70%
01:00 +10°C° 0 mm 8 mps 755 mmHg 72%
02:00 +9°C° 0 mm 8 mps 755 mmHg 73%
03:00 +9°C° 0 mm 8 mps 754 mmHg 74%
04:00 +9°C° 0 mm 8 mps 754 mmHg 74%
05:00 +9°C° 0 mm 7 mps 754 mmHg 73%
06:00 +8°C° 0 mm 7 mps 754 mmHg 73%
07:00 +9°C° 0 mm 7 mps 754 mmHg 70%
08:00 +10°C° 0 mm 8 mps 754 mmHg 68%
09:00 +10°C° 0 mm 8 mps 754 mmHg 65%
10:00 +12°C° 0 mm 7 mps 754 mmHg 60%
11:00 +14°C° 0 mm 7 mps 754 mmHg 55%
12:00 +16°C° 0 mm 7 mps 754 mmHg 50%
13:00 +16°C° 0 mm 7 mps 753 mmHg 49%
14:00 +17°C° 0 mm 6 mps 753 mmHg 48%
15:00 +19°C° 0 mm 6 mps 753 mmHg 48%
16:00 +17°C° 0 mm 6 mps 753 mmHg 51%
17:00 +16°C° 0 mm 6 mps 753 mmHg 54%
18:00 +16°C° 0 mm 5 mps 753 mmHg 57%
19:00 +16°C° 0 mm 5 mps 753 mmHg 57%
20:00 +15°C° 0 mm 6 mps 753 mmHg 58%
21:00 +15°C° 0 mm 6 mps 753 mmHg 59%
22:00 +15°C° 0 mm 6 mps 753 mmHg 62%
23:00 +14°C° 0 mm 6 mps 753 mmHg 65%
Show more

We Need Your Consent

Meteoprog and our Service Providers may store and access personal data such as cookies, device identifiers or other similar technologies on your device and process such data to personalise content and ads, as well as provide social media features and to analyse the traffic.

  • Store and/or access information on your device

    Cookies, device identifiers or other information can be stored or accessed on your device for the purposes indicated above.

  • Personalised ads and content, ad and content measurement, audience insights, and products development

    Ads and content can be personalised based on a profile. More data can be added to better personalise ads and content. Ad and content performance can be measured. Insights about the audience who saw the ads and content can be derived. Such data can be used to develop or improve user’s experience, systems and software.

By clicking ‘I Agree’ you will allow the use of indicated cookies, device identifiers, web beacons or other similar technologies. Your settings can be changed in the browser on your device.

For certain purposes, legitimate interests may be relied on, rather than consent. You can read more about this in our Privacy and Cookie Policy.